Orbital elements:
2023 TL8                                                 Earth MOID = 0.0211 AU
Epoch 2023 Sept. 13.0 TT = JDT 2460200.5                Veres                   
M 354.88717              (2000.0)            P               Q                  
n   0.38157562     Peri.  156.80219     +0.99650512     +0.01023640             
a   1.8825606      Node   203.07826     -0.02753153     +0.97725588             
e   0.4710598      Incl.   12.20976     +0.07886417     +0.21181633             
P   2.58           H   25.06          G   0.15           U   8                  
Residuals in seconds of arc
231011 L51  0.9+  0.4-    231011 104  0.2+  0.1-    231012 L76  0.0   0.5+
231011 L51  1.2+  1.6-    231011 C40  1.1-  0.1+    231012 L76  0.0   0.4+
231011 L51  0.8+  1.1-    231011 C40  0.7+  0.2-    231012 L02  0.1+  1.1+
231011 I93  0.1-  0.0     231011 106  0.1-  0.2+    231012 L02  0.3+  0.5+
231011 L51  0.3+  0.8-    231011 106  0.1+  0.2-    231012 L02  0.5+  0.2-
231011 I93  0.1+  0.0     231011 C40  1.6+  0.7-    231012 M45  0.1-  0.5+
231011 L51  0.3-  0.1-    231011 106  0.4-  0.2+    231012 M45  0.3+  0.1+
231011 I93  0.2-  0.2+    231011 106  0.3+  0.2-    231012 M45  0.3+  0.1+
231011 L51  0.1-  0.2-    231011 106  0.1-  0.2-    231012 L54  1.0-  0.7-
231011 I93  0.0   0.1-    231011 106  0.1+  0.0     231012 L54  0.9+  4.1-
231011 L04  0.0   0.1+    231012 M38  1.4+  0.0     231012 L54  1.6-  3.5-
231011 L04  0.0   0.1-    231012 M38  0.2+  0.3-    231012 C40  1.2+  1.0-
231011 L04  0.0   0.4-    231012 958  0.9-  0.5-    231012 C40  0.3-  0.9+
231011 L04  0.1-  0.1+    231012 958  0.3+  1.2-    231012 C40  0.1-  1.7+
231011 595  0.2-  0.5+    231012 958  0.8-  0.3+    231012 C40  0.0   0.4+
231011 595  0.6-  0.3+    231012 H21  0.0   0.6+    231012 C40  0.3-  0.7+
231011 204  0.2+  0.2-    231012 H21  0.2-  0.6+    231012 C40  0.0   0.9+
231011 204  0.3+  0.2+    231012 H21  0.3-  0.4+    231013 C95  0.5+  0.3-
231011 595  0.6-  0.1+    231012 H21  0.1-  0.5+    231013 C95  0.1+  0.6+
231011 204  0.0   0.1+    231012 900  0.2-  0.5+    231013 C95  0.1-  0.4-
231011 C40  0.2-  0.3-    231012 900  0.7-  0.4+    231013 M29  1.0-  1.5+
231011 C40  0.7+  0.4-    231012 L51  0.4+  0.0     231013 M29  0.2-  1.1+
231011 C40  0.7-  0.5+    231012 L51  0.2+  0.2+    231013 858  0.2+  0.9+
231011 104  0.3-  0.0     231012 L51  0.3+  0.0     231013 858  0.2-  0.5+
231011 104  0.1-  0.3-    231012 L76  0.1+  0.7+    231013 858  0.7-  0.8+

Ephemeris:
2023 TL8                 a,e,i = 1.88, 0.47, 12                  q = 0.9958
Date    TT    R. A. (2000) Decl.     Delta      r    Elong.  Phase     V
2023 09 13    17 13 44.5 +33 37 55   0.1618  1.0082    86.0    84.8    24.1
...
2023 09 28    17 34 10.6 +41 04 12   0.08484 0.9959    83.3    91.8    22.9
...
2023 10 06    18 28 42.0 +55 02 19   0.04394 1.0022    91.6    85.8    21.3
...
2023 10 12    01 25 36.1 +60 28 28   0.02380 1.0126   126.5    52.4    18.9
2023 10 13    02 27 18.3 +49 51 25   0.02372 1.0148   134.7    44.4    18.7
2023 10 14    03 03 59.3 +38 31 09   0.02498 1.0171   140.6    38.5    18.6
...
2023 10 20    04 12 56.4 +00 04 22   0.04861 1.0336   139.8    38.4    20.1
...
2023 10 28    04 29 55.5 -12 43 05   0.09175 1.0620   136.3    40.3    21.6
...
2023 11 12    04 31 41.7 -17 44 54   0.1793  1.1314   139.0    35.1    23.0

M. P. C. Staff               (C) Copyright 2023 MPC           M.P.E.C. 2023-T209





More information about the Iaude mailing list